Dewpoint
54 44 40 39 44 44 40 35 18 26 25 19 21 21 6 17 20 16 18 35 39 42 50 51 50 50 50 52 55 58 59 53 54 47 46 58 69 69 70 71 72 71 71 72 73 73 74 75 75 75 75 75 74 74 74 74 74 74 74 74 73 73 73 74 74 74 74 74 74 74 73 73 73 73 73 73 72 72 71 70 69 69 69 70 70 70 70 70 69 69 69 68 68 67 68 68 69
45 43 38 37 37 35 32 33 26 23 24 21 19 15 13 16 17 12 9 30 39 43 51 53 54 55 56 57 58 57 59 61 60 61 64 67 69 71 70 71 70 70 71 72 72 73 74 74 74 74 74 74 74 74 74 74 74 74 74 74 73 73 73 74 74 74 74 74 74 74 73 73 73 73 73 73 73 72 72 72 69 69 69 69 70 70 70 70 70 69 69 68 68 67 67 68 68
50 44 34 39 41 34 35 32 27 23 21 19 18 19 20 12 14 18 37 37 39 42 45 47 48 50 52 53 53 53 54 63 63 64 65 67 67 69 70 70 70 71 71 72 72 73 74 74 74 74 74 74 74 74 74 74 74 74 74 74 74 73 73 74 74 74 74 74 74 74 73 73 72 72 73 73 73 72 72 71 70 69 69 69 69 70 70 69 70 69 68 68 68 68 68 68 68
47 48 38 38 33 31 30 30 28 23 19 17 15 15 4 20 10 33 35 36 38 40 41 41 41 42 52 53 56 58 59 61 63 64 65 66 67 70 71 71 72 71 72 72 72 73 73 74 74 74 74 74 74 74 74 74 74 74 74 74 74 74 74 74 74 74 74 74 74 73 73 73 72 72 73 73 72 72 72 72 71 70 70 69 69 70 69 69 69 69 68 68 68 68 68 68 68
39 48 39 36 34 32 29 30 29 26 22 21 15 15 24 34 37 33 33 37 39 39 41 43 44 46 48 48 49 51 56 61 62 64 64 67 69 70 71 71 71 71 71 72 72 72 72 74 74 74 74 74 74 74 74 74 74 74 74 74 74 74 74 74 74 74 74 74 74 74 73 73 72 73 72 72 72 72 72 72 72 71 71 71 71 71 70 70 69 69 68 68 68 68 68 68 68
35 38 45 36 34 34 30 28 29 21 24 19 14 13 5 8 34 31 29 34 38 39 41 44 45 48 49 50 50 55 60 59 63 65 66 68 70 71 71 71 70 70 71 72 72 72 72 74 74 74 74 74 74 74 74 74 74 74 74 73 74 74 74 74 74 74 74 74 73 73 73 73 73 72 72 72 72 73 73 72 72 72 72 72 72 72 70 70 69 69 69 69 69 69 68 68 68
34 33 32 33 32 29 29 29 27 25 24 19 16 14 11 9 22 31 34 36 40 43 46 47 49 48 49 51 53 57 61 63 63 65 66 69 70 70 70 70 71 71 72 71 71 72 72 73 74 74 74 74 74 74 74 74 73 73 73 73 73 73 74 74 74 73 73 74 73 73 73 72 72 73 73 72 73 73 72 72 72 72 72 72 72 71 71 71 70 69 69 69 69 69 69 69 69
40 27 34 28 25 23 24 25 24 24 23 18 12 10 7 10 30 30 32 36 38 39 39 40 47 50 50 53 51 56 58 62 64 66 68 69 69 70 70 71 70 71 71 71 71 72 72 73 73 73 74 74 74 74 74 74 73 73 73 73 73 73 71 72 73 73 73 73 73 73 73 73 72 72 72 72 73 73 72 72 72 73 73 72 72 71 71 71 70 69 69 70 70 69 69 69 69
30 29 36 25 25 22 18 15 18 19 19 17 16 20 37 17 22 26 31 32 33 35 41 49 49 49 50 52 53 57 61 64 65 68 68 69 69 70 70 70 70 70 71 71 71 72 73 73 73 73 73 74 74 74 73 73 73 73 73 73 73 71 69 71 72 72 73 73 72 72 73 73 73 73 73 73 73 73 73 73 73 73 72 72 71 70 70 70 70 69 70 70 69 69 69 69 69
27 32 28 27 27 23 22 20 15 12 13 13 12 11 7 17 23 26 28 29 33 39 42 48 50 50 51 52 54 57 60 64 66 68 69 69 70 70 70 70 70 70 70 71 71 72 72 73 72 73 73 73 73 73 73 73 73 73 72 72 72 70 70 69 72 72 73 73 73 73 73 73 73 73 73 72 73 73 73 73 72 72 72 70 68 69 70 70 70 69 69 69 69 69 69 69 69
27 24 28 19 24 22 22 20 20 19 17 16 8 8 6 5 21 21 31 33 37 41 46 50 50 50 50 49 51 56 62 65 66 67 68 69 69 70 70 70 70 70 70 70 70 71 71 72 72 72 72 72 72 72 72 72 72 72 72 72 72 72 70 70 72 73 73 73 73 73 73 73 73 73 73 72 71 73 73 72 72 71 71 69 69 70 70 70 69 69 68 69 70 69 69 69 68
23 18 18 20 21 21 21 21 20 17 15 12 9 9 7 3 19 28 33 34 39 43 44 46 46 49 49 51 52 57 61 63 64 65 67 69 69 70 70 70 70 70 70 70 70 70 70 70 70 71 71 71 72 72 72 72 72 72 72 72 72 72 72 72 72 73 73 73 73 72 72 72 72 72 72 72 72 73 72 71 71 70 70 71 70 70 70 70 69 69 69 69 69 69 69 68 68
25 25 16 16 19 19 22 18 16 24 18 11 9 8 7 10 17 28 33 35 39 37 36 43 48 50 48 49 50 58 60 62 64 65 66 68 69 69 69 69 69 69 69 70 69 69 69 69 69 70 70 71 71 71 72 72 72 72 72 72 72 72 72 72 72 73 72 73 72 72 72 72 72 72 72 72 72 72 71 71 71 70 71 69 70 70 70 70 69 69 69 69 69 69 68 69 68
22 19 21 17 20 14 13 12 9 9 8 9 6 6 19 13 25 21 30 31 33 34 38 47 47 48 47 49 51 55 58 61 64 65 65 66 67 68 69 69 69 68 69 69 69 68 68 69 69 68 68 68 69 70 71 71 72 72 72 72 72 72 72 72 72 72 72 72 72 72 72 72 72 72 72 72 72 72 71 71 71 71 71 71 70 69 69 69 69 69 69 69 69 69 68 68 68
18 18 21 25 16 16 16 15 13 13 10 10 10 14 16 20 20 22 24 28 34 40 43 43 48 47 46 47 46 52 57 61 63 64 65 66 67 68 68 68 68 68 68 68 68 68 68 67 67 67 68 67 67 67 68 71 71 71 71 72 72 72 72 72 72 72 72 73 72 72 73 73 72 72 72 72 71 71 71 71 71 71 71 71 70 69 68 69 69 69 69 69 69 69 68 68 68
18 11 16 17 11 13 10 11 13 11 9 7 9 15 15 17 17 19 23 32 32 34 37 39 38 43 48 47 47 52 58 60 62 63 64 65 66 66 67 67 66 67 67 67 67 67 67 66 66 66 66 66 66 67 68 68 71 72 72 72 72 71 71 72 72 72 72 73 73 72 72 72 72 72 71 72 71 71 70 70 71 71 71 70 70 69 69 69 69 69 69 69 69 68 68 68 68
17 17 10 15 8 10 11 14 12 9 6 7 11 15 14 14 20 25 31 32 31 38 35 36 33 46 47 45 46 53 56 58 60 59 59 60 61 60 60 63 64 64 66 66 66 66 66 66 65 65 66 66 66 67 68 68 69 72 71 72 71 71 71 72 71 71 72 72 72 72 70 71 70 70 70 71 71 70 70 70 71 70 70 70 70 70 69 69 69 69 69 69 68 68 68 68 68
16 16 11 13 11 9 13 12 16 11 10 8 10 19 14 16 24 30 34 36 36 38 38 40 41 42 44 43 45 49 52 55 54 55 54 54 54 52 55 59 62 62 63 63 64 65 65 65 65 65 66 66 66 68 69 69 69 70 69 69 70 70 71 71 71 70 71 69 72 71 70 70 68 68 69 72 70 70 71 71 70 70 70 69 70 69 69 69 69 69 69 69 68 68 68 65 65
16 18 15 8 12 13 13 13 12 11 8 10 13 12 12 14 17 18 31 35 37 37 39 40 40 40 40 41 43 45 50 50 50 49 49 49 47 48 54 55 52 49 52 56 62 64 64 65 65 65 66 66 67 67 69 69 69 68 68 69 71 72 72 71 70 71 70 70 70 71 70 69 68 68 69 68 69 70 71 71 71 70 70 70 70 70 69 69 69 69 69 68 68 68 65 63 63
13 15 13 11 17 16 18 12 9 12 10 9 9 12 9 15 16 18 31 35 37 37 38 39 39 39 40 40 40 41 44 44 45 44 43 44 44 45 48 47 44 44 46 52 55 61 64 64 65 66 65 66 66 67 68 68 68 68 68 68 69 69 70 72 71 69 70 71 70 69 68 68 68 67 70 70 71 69 70 70 70 70 70 70 70 69 69 69 69 68 69 68 68 67 63 62 63
13 13 11 10 11 9 10 20 13 11 10 10 10 13 9 16 13 21 30 32 36 37 39 39 39 39 39 38 38 41 43 44 44 44 45 44 45 46 45 44 40 42 46 49 56 57 59 63 65 66 66 66 66 67 67 67 66 66 66 66 67 66 67 68 68 68 67 69 68 68 68 68 68 67 68 68 67 67 68 67 69 69 69 68 68 66 66 68 67 65 66 66 63 64 63 62 63
13 10 10 10 10 9 10 10 12 12 12 10 10 13 9 12 12 22 25 27 31 37 39 40 39 39 38 38 39 41 44 45 45 44 45 46 46 47 48 46 49 46 48 41 45 48 53 58 63 65 67 67 67 66 66 67 67 66 66 66 66 66 66 66 66 67 66 67 68 69 69 68 68 68 67 67 66 66 67 68 69 69 69 68 67 66 65 65 63 63 63 62 62 63 63 63 62
9 9 10 10 10 9 13 14 16 11 13 10 11 11 11 14 15 16 14 15 24 28 39 40 39 39 38 39 41 44 47 47 45 45 45 46 47 48 47 46 44 42 43 45 48 50 48 50 52 55 62 65 66 67 66 66 65 65 66 66 66 65 66 65 65 66 67 67 67 68 68 68 68 68 66 67 68 66 65 66 68 69 68 68 66 65 64 64 63 63 62 61 60 61 62 62 61
8 7 8 9 10 10 12 13 12 9 7 10 13 17 12 21 9 13 19 21 22 25 38 40 39 39 40 40 43 45 48 47 46 46 45 46 47 48 47 45 42 42 43 44 45 48 49 48 49 52 56 62 65 66 65 65 64 66 67 68 66 69 67 65 64 65 66 66 67 67 69 68 69 67 66 67 67 66 66 67 66 68 68 67 66 65 64 64 63 63 61 61 60 60 60 61 60
8 8 9 8 9 10 10 10 9 11 10 13 14 12 14 13 11 14 19 31 33 37 38 39 39 39 40 42 43 47 49 48 47 46 47 44 48 50 47 45 44 43 42 42 42 43 47 52 52 52 53 54 63 65 64 64 64 64 64 65 66 69 65 65 65 65 65 65 66 68 69 67 66 65 65 66 66 65 67 67 67 66 67 67 66 64 64 64 64 63 62 60 59 59 59 59 60
9 8 10 9 12 12 10 13 12 10 14 12 10 21 19 15 15 13 14 32 35 37 38 38 38 38 39 41 45 48 47 46 45 45 46 48 49 46 46 42 43 42 43 44 45 46 47 49 48 50 55 56 60 61 61 62 62 63 63 64 66 67 64 65 65 64 64 64 65 66 67 66 65 65 65 65 66 66 67 67 66 66 67 67 66 64 63 63 63 62 61 60 58 58 58 58 59
9 8 8 8 12 11 12 9 18 13 10 16 20 19 14 11 12 9 21 33 36 36 36 37 37 37 37 40 45 48 45 45 45 47 48 47 46 44 45 44 41 42 45 47 49 50 53 47 48 50 54 60 55 55 57 60 61 62 64 64 64 63 64 65 65 65 64 64 65 66 66 67 67 65 65 65 65 65 65 66 66 66 66 66 67 66 67 65 63 61 61 61 60 59 59 58 59
7 10 7 21 12 13 13 13 10 7 13 11 9 10 10 9 12 10 18 30 34 34 34 35 35 36 37 38 42 47 45 46 47 47 46 44 43 43 43 42 43 44 48 48 48 49 49 49 50 51 52 56 52 51 58 57 59 60 61 60 61 63 65 63 64 65 66 64 66 65 65 66 67 66 65 65 65 65 65 65 65 66 66 66 66 67 66 67 66 66 66 64 63 62 61 58 59
8 10 7 10 11 10 11 10 12 11 13 11 12 8 7 11 6 10 15 25 32 32 32 33 34 35 37 38 43 47 45 46 45 44 45 43 43 43 42 44 44 47 49 49 50 50 49 49 48 49 50 51 50 50 52 55 57 57 58 58 61 64 63 62 62 62 64 65 65 65 65 66 66 65 66 66 66 66 65 65 65 66 66 66 66 66 67 66 66 65 65 65 64 64 64 61 57
10 7 9 9 9 7 9 12 12 8 9 8 8 6 14 10 8 8 14 15 27 30 30 30 32 35 37 40 46 47 45 44 44 43 44 44 45 44 44 46 47 48 48 49 50 50 52 52 52 53 53 53 52 51 51 53 55 55 56 55 60 58 59 60 62 60 62 61 65 67 66 66 66 66 66 66 66 66 67 67 67 66 66 66 65 66 66 66 66 66 66 65 65 64 63 62 58
4 7 9 11 7 10 11 12 11 9 12 7 7 11 8 12 12 11 13 12 16 23 29 29 30 34 36 43 45 44 42 43 43 44 46 47 47 46 47 48 47 48 50 49 49 51 52 52 53 51 52 50 50 50 50 50 51 52 51 51 54 57 58 57 58 58 58 59 61 64 65 66 66 65 65 65 65 65 65 66 66 67 67 66 66 66 66 65 65 65 65 64 64 64 63 61 58
6 5 8 16 7 9 8 15 10 8 10 9 6 15 7 8 9 10 13 12 12 16 23 26 31 34 37 42 44 42 41 41 43 44 47 48 48 47 47 46 47 48 48 49 51 51 52 54 52 50 51 50 51 52 50 50 51 52 55 57 51 51 54 55 55 57 58 59 61 61 63 65 66 65 66 66 64 64 64 64 66 67 68 67 66 65 65 64 65 65 65 65 64 64 62 61 60
14 7 20 15 10 6 5 6 11 10 8 10 5 9 13 10 12 10 21 11 11 12 16 25 30 34 37 42 43 41 41 41 41 44 48 48 48 47 46 46 47 47 49 50 50 50 50 52 53 49 50 51 52 52 52 51 51 50 50 51 50 50 50 52 54 57 58 60 60 60 61 64 64 65 67 66 65 65 64 65 64 64 66 67 66 66 64 64 65 65 65 65 65 64 65 62 59
16 17 8 19 9 12 7 11 10 10 7 5 6 8 17 15 16 17 17 11 10 12 19 26 32 34 37 41 42 41 40 40 40 45 48 47 47 46 46 49 47 48 49 49 49 48 48 49 48 50 51 51 50 50 50 51 51 52 53 54 56 50 52 54 56 58 58 58 58 58 60 61 63 63 65 65 64 66 65 65 64 65 66 65 64 64 64 65 64 65 65 66 66 66 65 64 61
15 25 22 22 19 14 11 8 8 7 7 7 10 9 11 12 18 21 15 15 19 19 21 27 30 33 35 39 41 40 40 39 39 45 47 48 48 46 46 46 47 48 49 49 49 48 47 47 50 53 52 51 51 51 52 54 53 53 53 52 52 52 52 53 54 55 56 57 58 58 59 59 60 60 62 63 64 65 64 64 64 66 66 65 64 65 64 64 65 65 65 66 66 66 65 64 63
21 23 20 22 17 18 15 16 16 6 9 7 9 7 9 14 16 21 24 27 18 18 26 29 30 32 33 36 41 40 40 39 40 45 48 48 47 47 46 47 48 48 49 49 49 47 46 48 49 52 51 51 52 52 54 53 54 53 50 50 50 51 51 54 53 54 54 55 57 57 57 56 59 60 59 59 61 61 61 61 62 63 64 64 63 63 63 64 64 65 66 65 64 64 66 65 64
29 27 19 16 18 17 15 16 23 27 11 13 17 13 12 12 17 24 24 23 21 20 19 28 30 31 31 34 39 40 40 39 40 46 48 48 48 46 47 48 48 48 48 49 48 47 46 48 50 51 51 52 53 52 53 52 50 45 48 49 48 49 52 52 52 52 53 54 55 55 57 56 57 58 58 57 57 60 59 60 60 61 62 63 64 64 65 64 63 64 64 63 63 64 65 64 65
26 27 19 15 16 17 17 21 32 27 18 17 26 23 23 24 28 28 28 24 20 21 23 23 32 30 30 31 36 40 40 39 41 47 48 49 48 48 49 48 48 46 48 48 47 47 48 50 50 51 51 53 52 52 53 52 51 45 45 46 47 51 51 49 48 50 52 55 55 54 54 52 52 54 57 57 57 56 56 57 59 60 61 61 62 63 63 65 65 64 63 63 63 63 62 64 63
31 20 20 18 18 16 20 33 34 31 30 22 26 23 26 27 27 29 25 26 27 25 24 22 26 30 29 29 34 39 39 38 42 46 48 48 49 49 48 47 47 46 47 47 47 48 50 50 50 51 51 52 52 53 52 49 50 49 46 47 49 48 49 51 50 53 56 52 53 55 53 52 51 51 53 59 57 57 56 56 57 57 59 61 61 61 61 61 62 64 64 63 63 63 63 64 63
24 25 21 17 20 18 16 26 33 31 27 23 27 24 28 33 32 29 29 26 28 33 33 32 33 30 29 29 31 37 38 39 41 45 47 47 49 47 47 47 46 47 48 47 47 48 50 50 49 51 52 52 53 54 51 49 50 50 49 48 49 50 49 55 51 51 52 52 51 52 53 52 53 52 53 55 55 55 56 55 56 56 56 58 60 60 61 61 61 62 63 64 62 61 62 62 63
32 27 24 22 22 21 17 22 33 36 32 31 24 23 24 31 23 23 25 28 31 31 27 28 32 34 33 34 34 35 35 39 41 45 47 47 48 47 46 46 46 46 47 46 46 49 51 49 49 51 51 52 52 54 50 52 52 51 52 52 53 51 50 48 46 48 51 53 51 49 50 52 52 51 52 54 57 54 54 55 55 55 56 56 57 57 58 59 61 61 62 62 62 62 62 60 61
28 32 27 26 28 28 29 30 25 25 21 30 25 15 22 28 28 26 26 28 26 28 26 23 23 30 32 32 31 34 37 40 41 44 46 47 48 47 47 47 46 46 46 46 46 49 50 49 50 52 51 51 51 51 51 51 49 49 49 49 48 48 47 46 43 45 47 48 47 50 51 51 51 52 52 52 55 57 54 54 55 55 56 56 57 56 56 56 57 59 61 61 62 62 62 61 60
20 25 36 31 29 30 29 28 23 16 15 23 28 14 17 24 21 21 22 25 24 25 27 24 23 28 29 31 30 32 36 39 41 45 46 47 48 47 47 46 46 45 46 47 47 49 50 49 50 52 51 50 52 50 51 51 48 49 49 48 48 49 48 45 45 47 46 47 49 48 50 51 51 51 52 53 54 56 54 54 54 54 55 56 57 55 55 56 56 58 59 60 61 61 62 61 62
20 30 31 28 24 27 28 28 24 21 30 28 31 22 15 18 20 22 22 23 22 23 23 25 26 27 27 28 29 32 35 39 41 44 46 47 48 48 47 47 46 45 46 47 48 50 50 50 51 52 51 51 50 50 51 49 48 49 50 50 50 48 45 43 47 48 49 51 47 48 50 52 52 52 51 52 53 56 54 54 53 53 54 55 56 55 55 55 56 56 57 57 59 61 61 61 62
21 32 31 24 23 28 28 20 21 20 15 13 20 27 17 19 21 26 24 19 20 20 21 22 24 26 26 26 27 29 33 37 40 43 46 47 47 48 48 47 47 46 47 48 48 50 50 52 52 52 51 50 50 50 50 49 49 50 51 52 51 50 44 46 49 52 50 51 49 50 51 51 50 52 53 53 53 55 56 53 52 52 52 54 56 54 54 55 55 55 56 56 57 58 59 59 60
29 33 27 25 25 30 24 19 16 19 12 10 16 24 14 16 21 21 20 18 19 20 21 21 23 26 25 24 25 27 29 31 39 41 44 47 47 48 49 49 48 48 48 49 49 50 50 53 53 53 50 49 49 50 50 50 51 53 52 51 51 50 49 48 47 48 49 48 47 48 48 49 50 51 50 50 52 53 52 53 52 51 51 54 55 53 54 55 55 55 54 54 55 55 57 59 60
33 28 18 16 20 22 25 21 21 21 7 9 18 26 18 11 17 17 17 20 18 22 22 24 25 25 25 25 24 26 26 29 36 41 43 46 48 48 49 49 49 50 50 50 50 51 51 54 53 52 50 49 50 49 49 50 52 53 50 49 49 48 48 47 46 47 47 47 46 47 48 48 52 51 51 50 51 52 53 54 51 52 53 55 54 53 53 53 54 54 54 54 54 54 54 56 58
21 22 18 17 18 18 19 18 19 8 8 13 17 24 22 10 14 16 23 22 21 20 16 18 25 24 24 25 26 26 26 28 31 40 44 45 47 48 49 49 50 50 51 51 51 51 51 53 54 52 51 48 49 49 48 50 52 51 50 47 46 47 47 47 45 46 46 47 47 48 48 50 51 51 51 50 50 52 52 51 53 51 52 51 51 51 52 52 53 53 53 53 53 53 54 55 55
17 18 15 14 10 14 9 13 5 6 11 14 20 22 16 14 13 15 17 17 18 24 18 19 24 23 24 24 25 25 26 28 31 37 44 45 46 48 49 49 51 51 51 51 51 51 51 52 53 52 51 48 48 49 48 49 52 50 48 47 45 47 47 47 46 46 45 47 47 47 48 48 48 49 49 50 51 50 51 50 49 49 49 50 51 51 51 52 52 52 52 51 52 52 53 53 53
12 11 16 11 5 5 2 9 11 14 17 24 23 23 16 20 20 24 21 21 21 22 21 20 22 23 24 23 23 23 25 28 31 37 44 44 45 47 49 49 51 51 51 51 51 51 51 51 53 52 52 49 48 48 48 48 51 50 47 47 47 47 47 47 45 45 46 46 48 46 48 46 48 49 48 50 51 50 50 51 50 49 49 50 51 50 50 50 51 50 50 51 51 52 52 52 52
10 12 12 14 14 11 3 10 4 8 11 24 29 16 18 14 19 27 24 23 24 21 18 26 25 23 27 25 23 23 27 32 33 37 44 45 45 47 48 49 50 51 51 51 51 51 51 50 52 52 52 51 49 48 48 47 50 50 48 48 49 47 47 46 45 46 47 46 47 46 47 47 48 48 49 49 51 49 50 49 49 49 49 49 49 49 49 48 48 49 50 51 50 51 51 50 50
19 18 12 13 13 19 8 14 15 17 14 14 15 15 22 19 29 27 25 24 25 27 23 27 23 24 27 27 26 26 29 32 35 35 42 44 45 46 48 49 50 51 51 51 51 51 51 51 51 52 52 51 50 48 47 47 49 49 49 49 49 49 49 47 48 48 48 46 46 46 47 47 47 48 48 49 49 50 49 50 50 49 49 49 49 48 47 48 49 49 49 49 48 51 49 49 49
23 11 14 12 18 15 15 19 20 16 15 13 16 17 19 23 15 19 23 24 25 26 25 25 26 27 29 27 27 26 26 27 34 36 39 44 46 46 47 48 49 51 51 51 51 51 51 51 51 51 51 52 51 49 47 47 48 48 49 49 49 49 48 47 48 48 47 48 47 47 47 47 47 48 49 50 50 49 49 49 48 48 48 48 47 48 48 48 48 47 47 47 47 48 49 48 49
16 13 18 20 19 29 18 10 18 11 6 13 15 13 17 13 15 22 21 23 25 25 25 26 29 27 27 29 29 29 29 29 27 32 36 43 45 46 47 47 48 50 51 51 51 51 51 51 51 51 51 52 51 50 48 47 48 47 48 49 49 49 48 48 47 48 47 48 47 48 48 48 47 49 49 50 49 49 49 53 48 47 47 47 48 47 47 47 46 46 46 46 47 47 47 47 48
12 14 25 19 20 17 25 13 5 5 5 6 15 17 15 15 16 19 21 23 25 26 26 27 28 29 29 29 30 30 31 32 31 29 31 35 42 45 46 46 47 48 50 51 51 51 51 51 51 51 51 52 52 51 49 48 47 48 48 49 49 49 49 48 47 48 47 47 46 47 47 47 48 49 50 48 48 48 48 48 47 47 46 47 46 46 46 46 45 44 46 46 46 46 45 45 46
19 17 16 20 19 18 13 16 19 15 8 5 12 12 9 19 18 19 22 24 24 25 27 28 28 28 29 29 28 29 32 32 32 34 35 38 40 44 44 46 47 48 49 51 51 51 51 51 51 51 51 52 52 51 50 49 48 48 48 49 49 49 48 48 47 47 47 46 46 47 47 47 48 48 46 47 47 47 47 46 46 46 45 45 45 45 45 44 44 44 44 44 45 45 45 45 45
18 17 16 18 21 22 14 18 16 12 7 6 6 5 13 18 25 24 23 24 24 25 26 28 28 27 28 29 29 27 27 28 29 32 32 35 41 44 44 44 44 48 49 51 51 51 51 51 51 51 51 52 51 51 51 50 50 48 49 48 48 48 48 47 47 47 46 46 47 47 47 47 47 46 46 46 46 46 45 45 45 46 45 44 44 44 44 44 44 44 44 44 44 45 44 44 45
17 16 17 13 13 12 10 14 22 21 15 10 8 11 18 22 32 28 24 27 26 25 23 25 26 26 26 27 26 28 26 25 26 30 32 36 34 40 42 41 43 45 47 48 51 52 51 51 51 51 51 52 52 51 51 51 50 49 49 48 48 47 47 47 47 47 46 47 47 47 47 47 45 46 46 46 45 45 45 44 44 44 44 44 43 43 43 43 44 43 43 45 44 44 44 44 43